CAPE
0 0 0 0 0 0 0 0 2 2 1 2 1 0 0 0 0 0 6 13 6 10 1 2 17 18 11 14 10 7 1 12 0 0 1 44 100 136 37 16 76 41 22 30 27 36 41 24 1 0 85 86 94 95
0 0 0 0 0 0 0 0 2 1 0 1 1 0 0 0 0 0 0 6 9 7 0 0 0 0 0 0 0 0 3 29 64 22 68 96 95 150 99 65 4 101 49 74 66 153 77 20 4 10 48 0 3 20
0 0 0 0 0 0 0 0 2 1 0 1 1 1 1 0 0 0 0 4 2 6 0 0 0 0 0 0 0 0 1 6 11 0 2 169 224 237 128 13 0 87 168 117 96 73 41 0 50 19 4 0 47 336
0 0 0 0 0 0 0 3 1 0 0 1 2 2 2 0 0 0 1 1 6 9 2 0 0 0 0 0 0 0 0 7 12 5 0 47 204 250 153 9 10 62 63 47 39 71 5 0 19 10 0 11 267 666
0 0 0 0 0 0 0 2 1 0 0 0 0 0 2 1 0 0 0 4 10 11 2 0 0 0 1 0 1 0 0 0 7 13 7 0 84 176 143 56 18 23 30 63 72 124 43 4 17 4 0 73 318 628
0 0 0 0 0 0 2 2 1 0 0 0 0 0 0 0 0 2 3 8 4 3 12 0 0 0 5 8 18 0 9 12 10 23 9 8 34 1 57 55 28 0 36 69 57 126 29 26 0 0 8 89 292 693
0 0 0 0 0 0 3 2 1 0 0 0 0 0 0 0 3 0 5 0 0 7 23 5 3 1 0 1 34 5 11 22 19 27 12 5 17 14 69 99 49 43 43 119 107 4 0 0 16 0 36 126 309 550
0 0 0 0 0 1 0 0 0 0 2 3 0 0 0 0 0 0 0 0 0 19 21 9 6 27 0 0 7 24 16 11 3 7 0 0 3 11 147 149 14 73 37 219 88 27 16 9 37 41 69 125 246 399
0 0 0 2 0 9 0 0 0 0 0 0 0 0 1 1 0 16 0 0 0 0 22 20 16 22 0 0 0 0 11 1 0 12 18 0 0 58 103 346 119 30 270 238 164 58 46 52 61 75 71 124 148 218
0 0 0 0 0 6 0 0 0 0 0 0 0 3 0 17 0 1 2 11 1 2 1 1 9 12 4 8 2 8 8 4 30 19 1 7 62 112 53 19 39 290 206 249 193 85 71 86 89 79 7 87 237 282
0 0 0 0 0 7 0 0 0 0 0 2 2 2 0 0 26 27 24 5 4 3 5 7 5 5 5 0 3 0 18 3 3 2 1 5 22 0 63 0 33 182 321 367 198 90 70 138 123 77 43 62 139 233
0 0 0 0 1 2 4 0 0 0 9 0 0 0 0 19 23 25 10 29 16 3 6 3 1 0 3 1 5 1 18 17 14 6 3 23 125 119 221 398 355 27 111 232 282 87 54 98 176 151 141 99 99 132
0 0 0 2 3 4 8 5 0 0 0 4 1 13 21 14 11 6 11 32 1 6 12 6 4 11 4 0 2 2 16 23 89 58 55 136 621 702 696 527 535 378 207 141 164 258 70 45 84 127 152 148 128 122
0 0 2 3 4 4 8 0 0 0 0 14 11 0 4 13 15 17 13 22 48 59 9 4 4 2 4 5 5 13 16 4 20 1 40 359 408 565 897 741 624 118 61 66 212 101 137 118 117 121 123 160 175 245
1 6 5 3 4 3 2 0 0 3 25 3 23 1 7 17 5 33 24 12 65 25 27 6 23 0 2 0 0 0 16 12 20 24 74 595 758 902 829 547 371 404 248 43 205 179 109 141 215 194 136 227 183 297
5 8 14 10 6 5 7 0 4 19 23 23 17 7 17 18 23 34 18 39 18 38 30 53 13 3 1 11 20 7 3 0 21 66 348 593 681 827 858 872 937 774 518 368 286 128 178 210 210 243 303 292 281 357
2 16 2 2 6 9 2 28 17 22 14 11 1 7 4 6 15 4 36 50 49 7 7 0 26 51 34 31 20 13 26 25 8 8 89 273 418 480 425 468 495 631 796 859 726 537 524 447 450 463 503 540 375 381
19 12 6 0 5 5 5 0 17 20 8 5 2 8 7 11 2 22 22 14 13 19 19 9 8 31 39 31 37 6 41 3 29 7 1 91 262 359 275 305 289 303 359 322 347 529 679 522 447 500 713 612 438 353
13 7 0 0 8 17 35 20 16 17 16 18 6 13 8 15 15 10 11 13 16 14 19 8 27 42 17 0 5 38 41 57 3 7 44 15 27 165 264 247 211 144 118 92 84 90 169 232 253 277 323 366 296 227
0 0 0 0 0 2 25 29 20 9 1 2 26 14 14 15 19 28 29 25 19 14 23 6 15 5 27 46 61 6 1 1 14 8 2 1 27 144 106 72 87 87 50 47 22 6 48 46 32 32 26 31 53 66
0 0 0 2 4 3 19 19 15 8 19 33 40 61 36 15 13 39 33 29 18 25 14 18 26 27 21 51 35 12 11 0 0 12 9 9 19 28 69 54 35 32 23 11 3 16 31 38 23 10 6 2 0 33
19 1 27 8 19 24 16 9 11 13 8 11 13 23 15 14 11 37 36 34 33 29 26 32 21 41 23 19 15 43 5 6 13 9 0 0 8 68 78 60 35 62 63 58 34 14 17 18 35 22 9 8 0 6
0 4 24 21 22 8 0 15 22 15 14 7 13 18 27 20 24 36 22 43 51 95 79 79 164 187 264 282 245 76 2 33 48 53 15 18 47 54 43 47 51 63 52 21 91 39 12 2 3 8 3 0 0 29
0 20 9 19 11 2 7 24 5 13 21 2 2 2 0 0 1 0 0 17 12 36 43 78 137 248 283 263 8 62 19 0 1 9 25 29 36 48 54 34 34 37 58 31 35 29 27 21 4 9 14 20 31 19
8 0 2 0 9 17 21 17 23 5 1 2 1 0 1 1 1 0 1 6 0 0 2 42 207 230 95 103 67 26 3 10 1 0 3 13 20 26 52 55 85 89 52 42 59 42 19 17 38 31 16 18 20 138
0 7 0 19 27 17 8 8 2 2 2 0 1 0 0 4 4 3 0 3 12 15 60 38 30 16 27 35 77 55 49 29 16 50 56 37 26 36 48 97 74 141 64 45 27 8 2 2 5 5 0 6 2 3
0 1 6 14 10 11 15 13 1 0 1 7 18 19 9 4 5 1 18 121 101 142 116 47 125 136 86 197 451 499 365 259 146 65 158 124 98 89 79 75 40 29 26 28 25 4 6 5 4 2 3 2 1 0
2 4 4 3 7 10 11 12 3 0 4 8 8 3 3 0 0 8 46 154 278 87 47 41 20 31 42 54 166 262 281 199 147 102 141 89 12 13 1 0 0 1 0 1 14 12 7 10 9 4 0 0 0 1
5 9 5 6 5 2 0 0 0 0 5 1 12 7 0 25 33 41 67 61 156 148 51 37 43 38 47 31 30 123 183 138 84 48 12 14 29 21 39 37 15 3 0 0 0 0 0 4 9 0 0 0 0 0
3 0 4 3 1 1 1 0 0 1 6 19 121 87 44 177 105 79 61 49 94 59 76 41 21 36 40 62 74 123 110 116 39 13 17 38 42 49 49 53 57 38 35 20 38 14 1 2 0 4 10 2 3 13
1 1 2 2 10 25 19 18 18 37 32 110 188 69 73 50 67 99 66 68 75 80 82 51 23 16 37 59 66 121 66 47 53 49 56 57 55 48 49 53 51 54 69 70 64 62 42 36 38 22 53 54 52 46
1 7 3 16 25 21 36 6 10 79 87 166 188 100 53 35 36 49 61 33 37 29 23 51 32 26 9 6 1 1 15 19 28 43 42 43 46 57 72 67 63 62 67 49 48 103 60 66 123 135 97 65 67 69
2 8 10 6 17 24 58 90 102 101 156 88 52 69 43 29 21 7 13 17 19 22 34 52 45 37 22 16 1 12 12 0 0 0 0 0 0 0 51 80 134 123 101 97 18 22 65 33 36 52 50 52 62 69
CIN
-0 -0 -0 -0 -0 -0 -0 -0 -2 -1 -3 -3 -1 -0 -0 -0 -0 -0 -1 -0 -1 -0 -1 -4 -1 -0 -2 -1 -3 -10 -17 -33 -0 -0 -2 -5 -8 -7 -19 -24 -6 -17 -6 -7 -8 -7 -9 -13 -10 -0 -15 -12 -13 -17
-0 -0 -0 -0 -0 -0 -0 -0 -0 -0 -0 -0 -0 -0 -0 -0 -0 -0 -0 -1 -0 -0 -0 -0 -0 -0 -0 -0 -3 -8 -6 -23 -2 -5 -3 -4 -6 -5 -3 -12 -37 -4 -7 -9 -6 -15 -58 -21 -35 -17 -29 -0 -4 -63
-0 -0 -0 -0 -0 -0 -0 -0 -0 -0 -0 -0 -0 -0 -0 -0 -0 -0 -0 -0 -1 -0 -0 -0 -0 -0 -0 -0 -0 -0 -3 -3 -3 -0 -22 -35 -16 -6 -3 -72 -0 -4 -9 -4 -3 -5 -1 -0 -26 -39 -11 -0 -65 -39
-0 -0 -0 -0 -0 -0 -0 -1 -0 -0 -0 -0 -0 -0 -0 -0 -0 -0 -0 -0 -1 -0 -1 -4 -0 -0 -0 -0 -0 -0 -0 -2 -2 -1 -0 -43 -13 -9 -13 -23 -5 -32 -28 -17 -3 -8 -32 -3 -30 -26 -0 -26 -26 -10
-0 -0 -0 -0 -0 -0 -0 -4 -0 -0 -0 -0 -0 -0 -0 -0 -0 -0 -0 -1 -1 -1 -1 -0 -0 -0 -0 -0 -1 -0 -0 -0 -2 -1 -2 -0 -19 -7 -23 -53 -59 -102 -22 -6 -2 -2 -16 -3 -41 -39 -0 -48 -31 -19
-0 -0 -0 -0 -0 -0 -0 -0 -0 -0 -0 -0 -0 -0 -0 -0 -0 -0 -6 -1 -0 -0 -0 -0 -0 -0 -2 -2 -1 -1 -1 -2 -2 -1 -1 -2 -15 -0 -20 -23 -60 -1 -24 -3 -1 -8 -4 -24 -0 -0 -40 -41 -40 -6
-0 -0 -0 -0 -0 -0 -0 -0 -0 -0 -0 -0 -0 -0 -0 -0 -0 -0 -0 -0 -0 -0 -0 -0 -3 -5 -0 -0 -1 -1 -2 -1 -1 -1 -2 -3 -3 -46 -50 -11 -21 -13 -5 -2 -3 -4 -0 -0 -45 -0 -45 -35 -43 -1
-0 -0 -0 -0 -0 -0 -0 -0 -0 -0 -0 -0 -0 -0 -0 -0 -0 -0 -0 -0 -1 -2 -0 -0 -2 -1 -0 -0 -4 -1 -1 -0 -1 -1 -0 -0 -2 -11 -2 -7 -51 -26 -17 -14 -4 -10 -15 -30 -44 -47 -33 -40 -25 -7
-0 -0 -0 -12 -4 -1 -0 -0 -0 -0 -0 -0 -0 -0 -0 -0 -0 -0 -0 -0 -0 -0 -0 -0 -1 -0 -0 -0 -0 -0 -5 -0 -1 -0 -1 -0 -0 -1 -14 -11 -2 -17 -14 -19 -14 -3 -5 -6 -32 -38 -29 -43 -28 -18
-0 -0 -0 -1 -0 -0 -0 -0 -0 -0 -0 -0 -0 -0 -0 -1 -0 -0 -0 -5 -0 -0 -0 -0 -2 -0 -1 -1 -1 -0 -1 -4 -0 -2 -3 -0 -24 -10 -58 -43 -46 -16 -11 -4 -2 -1 -1 -5 -19 -35 -41 -38 -10 -4
-0 -0 -0 -0 -0 -5 -0 -0 -0 -0 -0 -0 -0 -0 -0 -0 -3 -0 -0 -0 -0 -0 -0 -0 -2 -0 -4 -1 -1 -1 -2 -2 -3 -1 -2 -2 -25 -0 -71 -0 -31 -15 -13 -19 -9 -1 -2 -4 -4 -22 -39 -34 -31 -5
-0 -0 -0 -0 -24 -9 -7 -0 -0 -0 -0 -0 -0 -0 -0 -1 -0 -0 -0 -0 -0 -0 -2 -0 -4 -0 -2 -3 -0 -7 -1 -3 -1 -5 -2 -1 -3 -4 -12 -2 -13 -7 -8 -16 -1 -7 -5 -3 -1 -2 -5 -28 -28 -21
-0 -0 -0 -29 -27 -21 -16 -9 -5 -0 -0 -0 -0 -0 -0 -0 -0 -0 -0 -0 -2 -0 -0 -5 -0 -0 -0 -0 -1 -1 -0 -0 -5 -5 -0 -4 -24 -5 -4 -6 -32 -3 -5 -27 -27 -13 -3 -10 -7 -1 -2 -2 -2 -6
-0 -0 -22 -25 -21 -14 -8 -9 -0 -0 -0 -1 -0 -0 -0 -0 -1 -1 -2 -5 -2 -1 -6 -13 -0 -1 -2 -0 -0 -0 -1 -5 -0 -0 -3 -6 -22 -12 -38 -31 -30 -9 -8 -14 -15 -15 -14 -7 -8 -7 -3 -5 -3 -3
-8 -20 -24 -19 -16 -15 -16 -6 -0 -0 -0 -1 -0 -0 -1 -1 -7 -1 -1 -6 -5 -3 -0 -0 -0 -3 -0 -1 -1 -0 -0 -0 -0 -1 -10 -3 -15 -17 -25 -27 -9 -17 -4 -2 -6 -12 -19 -16 -9 -10 -11 -14 -8 -11
-19 -22 -2 -13 -19 -14 -14 -0 -0 -2 -0 -0 -0 -0 -0 -3 -1 -1 -6 -1 -3 -2 -8 -0 -1 -0 -0 -1 -0 -0 -0 -0 -2 -4 -0 -0 -0 -0 -1 -3 -16 -25 -23 -10 -2 -4 -7 -11 -15 -13 -15 -15 -24 -21
-17 -0 -30 -16 -17 -15 -16 -0 -0 -0 -0 -0 -2 -2 -1 -0 -1 -15 -1 -1 -1 -1 -3 -0 -0 -0 -1 -0 -0 -0 -0 -0 -12 -20 -15 -5 -4 -8 -18 -20 -40 -46 -40 -38 -49 -46 -25 -30 -26 -29 -17 -30 -27 -34
-0 -2 -6 -1 -9 -4 -0 -0 -0 -0 -0 -1 -2 -1 -2 -4 -2 -2 -4 -4 -1 -0 -0 -1 -0 -2 -0 -0 -0 -2 -0 -6 -5 -14 -27 -24 -15 -7 -17 -33 -54 -54 -44 -47 -49 -38 -22 -38 -33 -18 -25 -29 -43 -31
-9 -0 -1 -1 -1 -0 -0 -0 -0 -0 -0 -2 -6 -3 -1 -1 -2 -1 -5 -9 -4 -3 -0 -2 -1 -0 -2 -0 -1 -0 -4 -5 -10 -14 -7 -26 -18 -23 -24 -29 -33 -54 -66 -75 -65 -59 -55 -41 -17 -17 -3 -4 -2 -4
-0 -0 -1 -0 -0 -4 -0 -0 -0 -1 -2 -7 -1 -1 -2 -2 -2 -2 -1 -1 -2 -6 -1 -8 -2 -5 -1 -7 -14 -15 -10 -7 -17 -18 -25 -13 -14 -8 -8 -18 -13 -18 -27 -43 -69 -40 -46 -40 -61 -78 -71 -82 -62 -32
-0 -9 -0 -0 -0 -0 -0 -1 -1 -1 -2 -0 -1 -2 -3 -3 -5 -2 -2 -2 -2 -1 -1 -2 -3 -6 -13 -0 -3 -1 -24 -0 -0 -20 -29 -28 -20 -12 -1 -1 -3 -1 -1 -11 -29 -42 -55 -62 -85 -110 -98 -82 -11 -46
-0 -24 -0 -0 -1 -0 -0 -0 -0 -1 -1 -1 -1 -1 -0 -1 -5 -8 -9 -1 -0 -3 -5 -6 -8 -1 -1 -2 -4 -2 -0 -16 -28 -27 -0 -0 -27 -8 -0 -1 -0 -1 -1 -4 -15 -39 -56 -49 -70 -99 -91 -71 -0 -69
-3 -4 -0 -1 -0 -1 -0 -0 -0 -1 -1 -1 -1 -1 -0 -2 -1 -1 -1 -1 -1 -4 -3 -5 -1 -0 -0 -0 -0 -5 -0 -3 -1 -1 -21 -15 -4 -0 -1 -0 -0 -1 -2 -4 -7 -27 -45 -38 -65 -48 -25 -0 -7 -32
-0 -0 -0 -0 -0 -0 -1 -0 -3 -0 -0 -0 -0 -0 -0 -1 -7 -0 -0 -1 -9 -0 -1 -0 -2 -13 -5 -0 -4 -1 -1 -0 -1 -1 -1 -0 -1 -1 -2 -1 -3 -2 -9 -1 -1 -1 -2 -2 -5 -2 -1 -8 -41 -48
-0 -0 -4 -0 -2 -0 -0 -0 -0 -4 -0 -0 -0 -0 -3 -1 -1 -0 -1 -5 -0 -0 -19 -5 -0 -1 -7 -1 -4 -1 -5 -1 -0 -0 -1 -2 -3 -3 -2 -2 -9 -10 -10 -2 -5 -0 -2 -3 -2 -12 -19 -64 -65 -11
-1 -0 -1 -0 -0 -1 -0 -0 -0 -0 -0 -0 -2 -0 -0 -0 -0 -0 -0 -3 -4 -16 -4 -4 -8 -18 -20 -22 -17 -18 -8 -1 -1 -3 -7 -2 -2 -2 -4 -15 -11 -1 -2 -1 -2 -2 -1 -1 -3 -0 -1 -0 -0 -0
-0 -0 -1 -0 -1 -1 -0 -0 -0 -0 -0 -2 -0 -0 -0 -0 -0 -1 -22 -0 -0 -2 -5 -7 -4 -1 -1 -0 -1 -0 -4 -7 -15 -16 -5 -3 -3 -3 -1 -1 -2 -1 -1 -1 -1 -5 -0 -0 -0 -0 -0 -0 -0 -1
-3 -1 -1 -1 -0 -0 -0 -0 -0 -0 -0 -0 -0 -0 -0 -0 -0 -9 -8 -12 -2 -1 -2 -2 -3 -1 -1 -1 -2 -2 -2 -1 -1 -1 -1 -2 -2 -2 -0 -0 -0 -1 -0 -0 -2 -1 -2 -1 -0 -1 -0 -0 -0 -0
-0 -1 -0 -0 -0 -0 -0 -0 -0 -0 -2 -0 -0 -1 -2 -1 -0 -1 -3 -1 -2 -5 -1 -2 -4 -5 -3 -16 -4 -1 -2 -2 -1 -4 -2 -1 -1 -1 -5 -2 -4 -3 -0 -0 -0 -0 -0 -1 -1 -0 -0 -0 -0 -0
-0 -0 -0 -0 -0 -0 -0 -0 -0 -6 -16 -10 -1 -8 -9 -1 -8 -1 -3 -39 -19 -0 -3 -3 -3 -5 -3 -2 -1 -4 -13 -5 -8 -3 -3 -1 -1 -2 -1 -2 -4 -2 -2 -10 -4 -41 -30 -28 -0 -34 -9 -20 -10 -3
-1 -1 -0 -0 -0 -0 -1 -6 -19 -15 -19 -2 -0 -1 -3 -2 -2 -5 -2 -2 -3 -2 -2 -3 -4 -4 -5 -3 -1 -4 -13 -12 -2 -3 -4 -3 -2 -3 -1 -3 -3 -2 -4 -6 -5 -7 -16 -15 -5 -9 -7 -1 -3 -5
-0 -1 -1 -0 -0 -1 -1 -17 -12 -1 -3 -4 -0 -9 -18 -11 -1 -1 -3 -2 -5 -4 -14 -4 -2 -4 -6 -4 -1 -0 -3 -4 -3 -4 -2 -4 -3 -0 -2 -4 -4 -4 -3 -5 -8 -3 -1 -0 -4 -0 -4 -2 -1 -2
-1 -0 -0 -0 -0 -0 -1 -1 -3 -6 -2 -1 -1 -8 -1 -4 -2 -1 -3 -2 -4 -6 -3 -4 -3 -3 -7 -4 -1 -7 -3 -0 -0 -0 -0 -0 -0 -0 -12 -17 -6 -2 -3 -5 -41 -50 -1 -2 -2 -1 -2 -1 -2 -1
Wind_Speed
26 27 28 30 30 30 30 30 30 27 25 23 20 17 17 18 19 20 18 17 17 20 24 28 26 24 24 22 24 22 25 21 26 29 35 36 37 37 36 44 21 20 21 23 23 27 30 10 13 21 22 22 20 22
26 26 27 28 28 28 27 28 25 24 23 21 20 18 18 18 19 19 19 19 20 20 23 32 27 30 28 28 28 26 25 24 20 23 28 34 39 36 37 35 40 24 19 19 24 18 21 11 17 18 20 20 21 21
24 25 26 27 28 26 26 26 21 22 21 21 20 18 18 18 19 18 21 21 22 24 31 17 15 12 16 21 25 30 26 29 28 26 26 25 29 32 33 36 42 19 18 21 19 19 14 13 14 16 16 19 17 17
23 25 26 26 27 26 24 22 20 20 20 19 18 17 18 18 17 18 18 22 21 24 24 20 15 17 21 21 21 21 29 30 25 24 28 31 32 30 38 37 29 20 13 18 19 14 12 12 11 13 15 14 13 14
23 24 25 25 26 24 25 18 18 18 18 17 18 18 18 18 19 20 22 18 20 20 24 29 33 27 20 16 22 30 29 32 29 29 29 31 34 38 36 35 36 20 25 12 17 7 7 6 7 11 11 10 11 11
22 22 23 24 25 23 21 15 15 16 16 17 17 18 20 19 20 19 17 13 16 15 21 23 23 24 21 26 30 23 19 25 32 28 30 32 35 28 35 44 46 38 42 18 17 3 5 6 8 9 9 8 9 9
20 21 22 23 22 19 17 14 14 15 15 16 18 19 20 18 17 16 18 17 16 18 21 25 21 13 22 23 24 16 16 17 21 29 33 31 27 29 39 39 37 38 25 15 12 2 4 6 7 9 8 8 8 10
20 20 19 19 19 16 16 14 15 15 14 15 16 18 18 17 20 19 16 4 14 21 20 20 21 15 19 21 20 14 13 16 24 25 26 35 36 32 35 35 22 30 22 17 5 3 2 5 7 9 7 6 8 9
17 17 16 17 18 12 13 15 16 17 16 17 17 19 14 11 14 15 13 10 12 16 19 18 24 24 17 19 18 20 18 23 23 20 18 26 37 32 34 28 20 14 13 14 6 4 4 2 7 9 9 4 5 8
16 16 15 18 18 9 10 13 16 17 18 18 14 12 13 12 12 11 14 14 13 12 16 25 26 28 23 18 22 21 19 22 22 5 29 41 39 41 37 32 26 20 16 20 10 7 3 5 6 9 10 8 3 3
15 14 15 16 15 10 9 12 14 17 16 13 11 10 16 12 13 14 14 10 11 20 9 11 19 23 18 21 22 20 18 21 20 6 36 32 36 38 42 38 31 27 19 20 16 8 3 4 7 8 8 9 6 4
14 15 15 14 15 12 11 11 11 11 13 13 14 18 16 15 14 16 16 15 16 18 18 20 20 20 17 18 20 20 22 21 20 9 29 36 25 15 10 12 21 15 23 22 16 10 3 3 7 9 8 7 6 5
13 13 13 13 13 12 11 11 10 11 17 11 11 12 11 13 17 21 19 14 17 19 17 15 19 19 14 17 20 20 21 23 21 20 24 23 18 14 15 15 17 15 11 10 15 14 11 6 1 4 5 6 5 4
12 13 13 13 12 10 10 10 10 10 11 12 11 10 5 19 21 22 21 18 19 20 19 18 16 17 18 20 21 19 17 19 21 22 21 17 22 16 19 18 21 25 28 19 17 16 17 11 8 5 3 4 3 3
14 13 11 11 10 10 10 9 10 9 13 13 15 13 23 22 21 20 20 20 18 18 18 19 17 16 16 18 20 19 18 18 21 23 21 15 18 17 18 19 24 27 28 25 23 19 15 13 9 5 4 4 5 5
14 13 11 13 12 10 10 10 10 12 15 16 19 21 21 22 21 20 21 19 19 18 18 18 16 16 17 17 18 17 16 18 17 19 7 7 9 10 11 12 14 14 18 19 22 18 18 15 13 10 7 7 6 7
11 14 13 13 10 9 9 9 9 12 16 17 20 23 23 22 22 22 18 19 18 18 17 17 17 16 16 16 17 19 17 16 15 12 10 8 8 10 9 9 9 10 11 12 12 12 15 18 16 14 13 14 12 10
13 15 12 12 11 11 9 8 11 17 21 24 24 22 22 20 22 22 20 18 19 17 18 16 18 17 17 17 18 20 20 18 14 11 11 11 11 10 9 8 8 9 9 9 9 10 10 9 8 9 13 14 15 14
13 14 11 11 10 11 10 8 15 19 22 22 24 24 23 23 22 23 22 22 22 22 20 19 18 18 18 18 19 18 17 17 17 16 14 14 14 12 11 9 9 9 10 11 12 12 12 13 13 16 17 17 20 20
12 11 10 9 11 13 14 13 18 20 20 19 21 22 23 23 23 23 23 23 23 19 20 19 20 18 17 16 16 17 16 17 16 15 16 15 15 13 10 10 12 12 12 12 13 15 14 15 16 19 21 23 24 25
11 11 10 10 10 11 16 15 16 18 19 19 20 20 21 22 23 23 25 24 27 28 28 26 26 26 22 19 17 17 15 15 14 14 14 17 17 16 12 12 13 14 15 15 17 16 17 18 20 22 25 25 25 26
11 12 9 11 15 16 19 19 19 19 20 20 20 20 20 21 21 22 22 25 27 26 22 22 22 24 24 24 25 20 18 14 11 11 12 17 18 17 13 14 16 18 18 18 18 19 21 22 22 25 26 26 27 28
10 13 16 17 17 16 18 19 18 18 18 17 18 18 17 16 16 16 17 17 17 18 20 23 25 27 27 26 25 22 22 21 24 22 9 17 14 16 17 17 17 18 20 19 19 23 24 25 25 24 27 28 28 27
14 15 15 17 19 18 17 18 18 17 15 16 17 18 16 16 14 14 16 16 15 13 18 22 22 23 23 22 23 20 18 26 28 27 22 20 22 19 17 21 22 22 20 23 24 25 27 27 29 29 28 27 27 27
15 17 17 18 18 18 18 17 15 14 15 16 17 16 15 16 14 14 13 12 15 14 14 14 15 18 18 17 18 15 16 17 17 20 19 19 21 22 19 18 17 21 24 24 25 26 27 28 26 26 25 26 26 25
17 19 19 18 18 18 16 15 15 15 15 16 15 14 13 15 13 11 11 13 10 13 10 10 12 12 13 13 13 13 13 14 14 13 13 16 18 19 19 19 19 19 21 22 22 22 23 23 22 22 22 23 24 23
18 19 21 20 19 18 16 15 14 16 16 15 14 14 13 12 9 15 13 14 11 12 11 14 10 9 8 12 12 9 10 11 10 11 12 12 13 14 14 15 15 17 18 19 19 20 20 20 20 19 19 19 18 17
19 19 20 18 19 18 17 15 16 16 15 15 14 14 14 15 13 21 19 14 15 15 16 20 14 10 8 11 19 19 18 20 18 17 16 16 17 16 17 18 19 18 18 18 21 22 23 22 22 22 21 20 19 18
20 19 19 19 17 14 15 15 15 16 16 17 14 9 12 14 22 17 18 17 15 12 7 18 22 23 22 22 21 19 18 19 18 19 18 18 18 18 18 18 19 20 21 21 21 21 23 24 25 26 27 26 26 25
21 21 20 17 16 15 14 16 15 17 19 17 15 15 19 20 20 20 18 19 15 17 15 14 19 20 21 20 20 20 19 17 17 18 17 17 17 18 18 18 18 17 17 18 19 19 19 19 21 21 22 22 21 21
19 21 21 20 17 15 13 13 20 17 16 17 18 18 10 8 21 20 20 17 17 19 17 18 20 19 19 20 20 20 20 19 18 17 17 18 18 17 17 17 17 17 17 17 17 17 18 17 18 18 19 19 21 21
23 24 20 19 17 16 14 18 20 16 17 17 19 18 20 20 19 18 14 5 17 18 17 17 18 19 20 20 19 18 19 20 20 19 18 17 18 18 17 17 17 17 17 17 16 18 18 18 17 17 18 20 21 21
24 22 22 19 18 19 20 20 21 16 16 19 18 19 18 17 18 19 16 17 17 17 17 17 17 17 16 17 17 18 17 17 17 16 15 16 16 16 17 17 16 15 17 16 18 18 15 18 18 19 20 20 20 20
Wind_Direction
331 332 332 331 332 332 332 332 334 336 337 340 342 341 340 337 331 328 329 329 325 318 308 303 301 300 296 292 289 301 296 280 271 263 257 255 254 253 255 248 250 258 261 272 280 285 284 335 334 315 324 325 329 323
332 333 332 333 333 334 335 335 339 339 341 341 339 338 337 334 329 327 323 325 319 312 309 297 300 289 286 284 284 283 281 286 286 273 262 261 253 254 251 255 234 252 262 272 285 301 301 332 327 333 331 326 325 327
333 334 335 334 333 335 336 337 341 341 341 339 337 336 336 331 328 325 317 322 318 312 306 311 314 315 301 285 280 272 279 270 272 274 272 265 261 254 251 253 246 246 270 272 283 297 308 325 340 338 339 333 338 340
335 334 334 334 335 336 335 337 341 340 341 342 343 341 338 335 332 329 320 316 316 314 311 320 315 313 300 294 287 281 272 270 271 273 266 259 255 256 252 248 266 293 252 264 284 305 316 330 345 348 345 350 351 1
335 335 334 335 335 334 333 339 342 345 346 346 343 339 337 334 329 319 313 318 315 314 304 295 285 288 310 305 289 276 269 262 264 266 265 260 257 258 257 256 248 258 238 272 283 286 312 333 1 1 3 4 8 21
335 337 337 336 334 335 338 346 349 348 347 347 344 339 331 329 326 326 331 336 329 324 309 303 304 298 312 296 278 286 274 268 259 264 268 260 254 265 249 239 238 243 217 283 294 357 351 22 20 20 23 14 26 36
337 338 336 338 340 342 346 350 351 348 349 346 343 336 330 328 328 323 318 326 327 322 308 301 311 324 314 309 295 293 282 278 271 261 258 255 260 256 243 241 242 247 259 279 279 334 7 53 36 44 38 36 39 55
337 338 341 345 346 352 354 356 353 352 355 351 344 340 336 328 320 320 318 360 328 305 309 313 312 318 325 315 305 311 293 282 267 264 261 251 246 244 239 236 261 252 249 264 244 292 10 64 60 57 53 50 70 68
342 344 349 352 348 4 6 358 351 349 345 340 337 332 348 359 343 326 348 3 334 319 319 317 292 293 328 322 304 287 283 265 266 271 264 245 234 236 227 242 242 244 253 258 244 290 105 58 80 82 85 53 66 82
345 347 351 344 348 10 9 2 353 347 345 342 347 345 345 341 7 8 338 341 346 349 317 259 262 271 297 307 262 258 266 257 258 158 220 215 223 224 227 236 245 265 261 260 242 256 125 107 102 96 92 94 40 39
347 350 345 350 356 17 25 11 358 348 356 8 7 346 313 345 337 337 334 355 12 265 84 218 299 264 291 262 252 247 255 245 256 262 211 225 223 224 228 229 246 252 260 265 256 257 210 148 124 113 99 90 71 23
348 347 347 352 354 9 12 10 15 11 2 358 336 298 301 304 318 307 306 311 284 282 285 289 310 285 295 276 253 245 232 227 250 268 229 230 242 136 199 229 242 254 256 259 258 257 224 145 132 130 119 102 85 47
351 351 356 358 360 8 13 17 25 0 322 6 357 343 335 309 277 238 261 307 281 258 213 289 288 285 304 265 231 209 230 232 236 248 237 240 243 241 236 246 244 233 253 261 262 267 269 280 61 104 115 115 94 58
355 354 1 3 6 21 19 23 33 8 342 329 342 352 353 242 224 208 234 265 268 263 266 250 248 265 235 216 204 226 277 237 240 243 245 250 235 256 246 252 249 237 239 264 271 273 267 283 290 311 3 13 32 34
340 360 20 19 25 36 30 39 52 1 299 304 295 308 220 231 236 236 242 239 273 262 266 266 259 270 264 240 233 234 227 244 228 227 240 266 253 255 255 256 258 253 250 256 265 274 274 277 291 304 313 328 333 335
338 358 18 10 12 40 46 66 50 314 288 283 259 227 244 233 240 254 247 269 270 261 267 254 282 282 262 255 249 254 237 234 246 236 14 290 272 268 274 281 274 274 266 268 271 264 273 274 282 295 304 307 312 314
10 5 12 4 24 41 39 18 353 294 274 269 244 221 224 235 238 242 287 283 280 271 288 280 275 289 282 274 262 253 266 273 283 286 303 314 290 290 300 306 313 304 300 300 301 292 275 278 283 290 292 297 300 302
360 353 22 39 64 39 30 46 313 269 247 219 227 251 255 266 237 241 272 291 264 287 278 299 280 289 289 287 284 277 288 290 283 289 311 313 282 302 310 310 312 314 316 316 312 308 305 307 312 308 299 296 295 302
355 6 49 68 36 349 343 9 285 262 254 251 236 232 241 252 260 257 257 250 239 239 267 275 278 288 292 306 291 293 292 283 279 281 290 302 292 291 281 298 299 312 323 322 314 312 311 305 306 301 298 298 293 296
360 19 51 55 356 305 295 303 265 259 255 263 250 237 239 243 250 247 248 247 254 281 275 272 268 303 321 315 304 296 297 290 286 282 281 287 279 297 321 311 305 323 336 326 326 311 310 306 310 303 298 296 293 293
30 37 61 61 33 86 287 283 276 263 260 253 246 244 235 240 231 235 240 256 239 240 242 253 262 272 290 295 299 298 303 310 287 285 279 265 259 269 309 320 308 309 311 315 307 317 312 310 305 301 295 294 295 294
356 67 354 80 283 279 248 239 243 247 241 237 239 237 238 243 251 261 269 248 245 252 282 285 291 287 284 282 273 284 282 302 314 290 284 259 275 285 311 311 300 303 310 315 319 320 309 304 309 302 298 297 296 293
40 278 252 249 248 249 229 222 228 225 227 235 241 228 218 218 218 231 224 227 238 292 282 278 274 277 274 271 270 275 266 263 241 247 286 265 310 312 311 313 315 317 314 318 321 312 308 309 307 307 299 294 293 296
256 247 247 234 216 220 221 205 209 219 240 235 217 212 202 189 197 197 197 200 216 196 222 253 251 257 255 266 267 275 276 252 246 246 270 285 281 302 316 306 306 310 318 314 310 307 302 302 302 298 300 301 303 302
245 233 229 221 217 207 202 207 216 222 204 188 179 193 197 190 177 156 166 161 224 209 198 201 206 194 233 268 268 292 289 277 279 277 285 296 300 300 311 319 323 314 308 306 307 308 306 305 307 311 310 308 305 308
226 218 212 212 205 205 210 220 214 219 210 197 194 204 209 193 183 207 190 149 178 154 200 238 212 243 283 242 273 288 284 285 288 302 309 308 305 302 311 316 321 323 324 328 330 329 325 320 319 317 315 313 310 307
218 212 208 209 210 214 220 219 218 215 220 214 216 209 212 231 243 169 170 153 161 158 167 149 181 204 228 348 344 300 313 339 3 32 32 6 360 347 343 338 340 342 350 351 353 349 347 344 340 337 334 338 336 338
219 216 206 207 208 213 215 218 207 206 213 218 225 221 220 189 217 137 141 170 155 143 134 92 359 337 329 330 38 39 37 51 39 33 38 35 34 25 30 32 33 29 25 11 25 27 27 25 24 21 18 15 9 8
212 213 215 209 213 231 221 216 214 198 193 189 207 250 196 179 138 162 148 146 150 173 205 11 46 40 46 56 59 54 31 50 50 55 50 49 51 52 55 51 54 40 38 36 28 28 32 37 41 43 43 43 42 40
212 213 210 216 215 212 216 196 206 206 187 185 179 179 152 142 128 136 132 88 148 55 359 339 15 22 30 31 37 50 46 39 40 46 41 44 45 44 41 41 41 37 40 39 42 47 46 48 53 49 36 35 28 33
218 210 207 210 218 229 239 218 182 199 198 182 174 161 167 93 82 108 79 32 55 89 30 14 26 11 12 27 40 55 63 66 41 36 40 54 52 41 30 27 32 36 46 58 55 41 49 51 23 21 18 17 29 32
209 203 205 204 206 214 218 199 191 212 179 183 153 132 85 97 49 39 333 141 49 45 34 22 30 31 33 38 32 31 41 59 65 51 43 43 47 44 28 27 6 358 6 20 42 20 26 38 51 36 37 18 18 21
207 206 205 204 201 194 186 194 182 209 174 130 72 88 59 42 42 49 21 10 20 24 19 23 24 20 17 17 30 43 24 27 29 22 9 355 333 313 319 311 322 5 15 8 353 293 24 26 19 16 15 14 13 10